This is the latest recevied weather packets stored in our database for station/object dl1wer-13. If no packets are shown the sender has not sent any weather packets the latest 10 day(s).
| Time | Temp. | Humidity | Pressure | Rain* | Wind** | Luminosity | Snow |
|---|---|---|---|---|---|---|---|
| 1777696219 | 3.89° C | 85% | 1048.8 hPa | 0 mm | - | - | - |
| 1777695618 | 3.33° C | 84% | 1048.8 hPa | 0 mm | - | - | - |
| 1777695019 | 3.33° C | 85% | 1048.7 hPa | 0 mm | - | - | - |
| 1777694419 | 3.33° C | 84% | 1048.7 hPa | 0 mm | - | - | - |
| 1777693819 | 3.33° C | 84% | 1048.7 hPa | 0 mm | - | - | - |
| 1777693218 | 3.89° C | 83% | 1048.7 hPa | 0 mm | - | - | - |
| 1777692619 | 3.89° C | 83% | 1048.7 hPa | 0 mm | - | - | - |
| 1777692018 | 3.89° C | 83% | 1048.6 hPa | 0 mm | - | - | - |
| 1777691418 | 4.44° C | 83% | 1048.7 hPa | 0 mm | - | - | - |
| 1777690819 | 4.44° C | 83% | 1048.9 hPa | 0 mm | - | - | - |
| 1777690218 | 4.44° C | 82% | 1048.8 hPa | 0 mm | - | - | - |
| 1777689619 | 5° C | 82% | 1048.8 hPa | 0 mm | - | - | - |
| 1777689018 | 5° C | 82% | 1048.8 hPa | 0 mm | - | - | - |
| 1777688418 | 5° C | 82% | 1049 hPa | 0 mm | - | - | - |
| 1777687819 | 5° C | 82% | 1048.8 hPa | 0 mm | - | - | - |
| 1777687218 | 5° C | 82% | 1048.8 hPa | 0 mm | - | - | - |
| 1777686618 | 5.56° C | 81% | 1049.1 hPa | 0 mm | - | - | - |
| 1777686019 | 5.56° C | 81% | 1048.8 hPa | 0 mm | - | - | - |
| 1777685419 | 6.11° C | 82% | 1049.1 hPa | 0 mm | - | - | - |
| 1777684819 | 6.11° C | 81% | 1048.9 hPa | 0 mm | - | - | - |
| 1777684218 | 6.11° C | 80% | 1049 hPa | 0 mm | - | - | - |
| 1777683620 | 6.11° C | 80% | 1049.1 hPa | 0 mm | - | - | - |
| 1777683018 | 6.67° C | 81% | 1049.1 hPa | 0 mm | - | - | - |
| 1777682418 | 6.67° C | 80% | 1049.1 hPa | 0 mm | - | - | - |
| 1777681820 | 6.67° C | 79% | 1049.4 hPa | 0 mm | - | - | - |
* Rain latest hour (hover to see other rain measurements)
** Current wind speed in m/s (hover to see current wind gust speed)